Wind_Speed
9 9 9 10 11 12 12 12 11 12 11 10 10 9 9 8 7 7 7 7 7 8 8 8 9 9 9 10 11 12 13 13 14 14 15 15 16 16 17 17 17 18 18 18
9 9 10 10 11 12 12 13 13 11 10 11 11 11 10 9 9 9 9 8 9 9 10 10 10 11 12 12 13 14 15 15 15 16 16 17 17 18 18 19 19 19 19 19
10 10 11 11 10 11 12 13 14 12 11 12 12 12 12 11 10 10 10 11 11 11 11 11 12 12 13 14 15 16 16 17 17 17 18 19 20 20 20 21 21 22 21 22
12 12 13 11 11 12 12 13 14 13 13 13 13 13 13 13 12 12 12 12 13 13 13 13 14 15 16 17 17 18 18 18 19 19 20 21 21 22 23 23 23 24 24 24
15 15 14 14 13 14 14 15 15 15 14 14 14 15 14 14 14 14 14 14 15 15 16 16 17 18 18 19 19 19 20 20 21 22 22 23 23 24 25 25 26 26 27 27
17 17 17 15 15 15 16 16 15 15 16 16 16 16 15 15 16 16 17 17 17 18 19 19 20 20 21 21 21 22 23 23 24 25 25 26 26 26 27 28 28 29 30 30
19 19 19 17 16 17 18 17 17 17 17 17 18 17 17 18 18 19 19 20 20 20 21 21 22 23 23 24 24 25 26 27 27 28 28 29 29 29 30 30 31 32 33 34
21 21 22 19 20 20 19 19 19 19 19 19 19 20 20 20 21 21 22 22 23 23 23 24 25 25 26 26 27 28 29 29 30 31 32 33 33 33 34 35 35 36 37 37
24 24 22 21 22 22 22 22 22 21 22 22 22 23 23 23 24 24 24 25 25 26 26 27 27 28 29 30 30 31 32 32 33 34 35 36 37 37 38 39 40 40 41 41
25 25 25 24 24 24 24 24 24 24 24 24 25 25 25 26 26 27 27 28 28 29 29 30 30 31 32 33 33 34 35 36 37 37 39 40 41 41 42 42 43 44 45 45
28 27 27 27 27 27 26 26 26 27 27 27 27 28 28 29 29 30 30 31 31 31 32 33 34 34 35 36 37 38 39 39 40 41 42 43 43 44 45 45 46 47 48 48
30 30 29 29 29 29 29 29 29 29 29 30 30 30 31 32 32 33 33 34 34 35 36 36 37 38 38 39 40 41 42 43 44 45 45 46 47 47 48 49 49 50 51 51
32 32 31 31 31 31 31 31 31 32 32 32 33 33 33 34 34 35 36 37 37 38 39 39 40 41 41 42 43 44 45 46 47 47 48 49 50 50 51 51 52 53 53 53
35 35 34 33 33 33 33 34 34 34 35 35 35 36 36 37 37 38 39 39 40 40 41 42 42 43 44 45 45 47 48 49 50 50 51 51 52 53 54 55 55 55 54 54
38 38 38 36 36 35 36 36 37 37 37 37 37 38 38 39 39 40 40 41 42 42 43 44 45 46 47 48 49 50 51 51 52 53 54 55 55 56 57 57 56 56 55 54
40 40 40 39 39 39 39 39 39 39 40 40 40 40 41 41 41 42 43 43 44 45 46 47 48 49 50 51 52 52 53 54 55 56 57 57 57 58 57 57 56 56 56 55
41 41 41 41 41 41 41 41 42 42 42 42 42 42 42 43 43 44 44 45 46 47 48 49 50 51 52 53 54 54 55 56 57 58 58 58 58 57 57 57 57 57 56 55
41 42 42 42 42 42 42 42 43 43 43 44 44 44 44 45 45 45 46 47 48 49 50 52 53 54 54 55 56 56 57 57 58 58 57 57 57 57 57 57 57 57 55 54
40 41 41 42 42 42 43 43 43 43 44 44 45 45 46 46 47 48 49 50 51 52 53 54 55 56 56 56 57 57 58 57 57 57 57 57 56 57 57 57 56 56 55 54
40 41 42 42 43 43 43 44 44 45 45 46 47 48 49 49 50 51 52 53 54 55 55 56 57 57 57 57 58 57 57 57 57 57 57 57 58 58 57 56 56 55 55 54
42 43 43 44 45 45 46 46 46 47 48 49 49 50 51 52 52 53 54 55 55 56 56 56 57 57 57 57 58 58 57 57 57 57 58 58 59 58 57 56 55 55 54 53
44 44 44 45 45 46 46 47 48 49 49 50 51 52 52 53 54 54 55 55 56 56 56 56 56 57 57 58 58 58 58 58 58 58 58 59 59 58 57 55 54 53 52 50
44 45 45 46 46 47 47 48 49 49 50 51 52 52 53 54 54 54 55 55 56 56 56 56 56 57 57 58 58 58 57 57 57 57 58 58 57 56 55 54 52 50 49 47
44 45 46 46 47 48 48 49 50 50 51 52 52 52 53 53 54 54 55 55 55 56 56 56 56 56 57 57 57 57 57 57 57 58 57 56 55 54 53 51 49 47 46 45
44 45 46 46 47 48 49 49 50 50 51 52 53 53 54 54 55 55 55 55 55 55 55 55 55 56 56 56 56 56 56 57 57 56 55 54 52 51 49 47 45 44 43 41
45 46 47 47 48 49 49 50 50 51 52 53 54 54 54 55 55 55 55 55 55 55 55 55 55 55 55 56 55 55 55 55 55 54 52 51 48 47 44 42 41 40 38 37
47 47 48 49 50 50 51 51 52 52 53 54 54 54 54 55 55 55 55 55 55 55 55 55 55 54 54 54 53 53 52 52 51 49 47 45 43 42 40 38 37 36 34 34
Wind_Direction
207 214 216 215 211 208 205 201 209 224 231 231 230 228 230 235 240 246 252 258 264 273 279 282 286 290 293 296 299 302 304 306 307 306 307 307 308 310 312 313 314 315 316 318
213 222 223 226 219 217 217 218 222 230 231 234 234 232 236 242 247 252 258 264 270 275 277 281 285 290 294 296 298 300 303 304 304 304 305 305 305 305 306 308 309 310 310 313
217 227 231 234 229 226 223 224 229 233 234 236 240 239 242 246 251 256 260 264 268 273 278 283 287 291 295 296 297 299 300 301 302 303 304 305 304 305 305 306 306 306 306 307
217 226 232 232 236 237 235 233 236 239 239 240 246 245 246 249 253 256 259 264 268 272 277 283 287 289 292 295 295 296 298 300 301 302 303 304 304 304 304 304 304 303 302 302
221 230 238 239 239 241 241 240 241 243 245 246 249 253 252 252 256 260 263 267 272 275 279 283 286 289 291 293 294 295 296 296 297 299 300 301 302 303 302 302 302 301 300 299
230 232 241 243 242 243 244 245 245 246 247 251 253 256 258 259 261 264 267 271 274 277 280 283 286 288 290 292 292 293 293 293 294 295 297 298 299 301 301 300 300 300 299 298
236 237 242 244 244 244 247 248 249 251 252 254 256 259 261 262 265 268 269 272 274 277 279 281 284 287 289 291 292 292 292 292 293 294 295 296 298 299 299 299 299 298 298 297
238 240 244 245 247 247 249 251 253 255 257 258 260 262 263 265 267 269 271 273 275 277 279 282 284 286 288 289 291 291 291 291 292 293 294 295 296 297 298 298 298 298 297 296
242 244 248 249 249 249 251 254 257 259 260 261 262 263 265 266 268 270 272 274 275 277 279 281 284 286 287 289 290 291 291 291 292 293 294 295 295 296 296 297 297 297 297 296
248 248 249 251 251 253 255 257 259 261 262 263 264 266 267 268 270 272 274 275 276 278 279 281 283 285 286 288 289 290 291 291 292 292 293 294 295 296 296 297 296 297 297 296
249 249 251 252 253 255 257 259 260 262 263 265 266 267 268 270 272 273 275 276 277 279 281 282 284 285 287 288 289 290 291 291 292 292 293 293 295 295 296 296 297 296 296 296
250 250 251 253 255 257 258 260 261 263 264 265 267 269 270 272 273 274 276 277 278 280 282 283 284 286 287 288 289 290 291 291 292 293 293 293 294 295 295 296 296 296 295 295
253 254 254 255 256 257 259 260 262 264 265 267 268 270 271 273 274 276 277 278 280 281 282 283 285 286 288 289 290 290 291 291 292 293 293 294 294 294 295 295 295 294 294 294
253 255 256 256 257 259 260 261 263 265 266 268 269 271 272 273 275 276 278 279 280 281 283 284 286 287 288 289 290 291 291 292 293 293 294 294 294 294 295 295 295 294 293 293
254 256 258 258 259 260 261 263 264 266 267 269 270 272 273 274 276 277 278 280 281 282 284 285 286 287 288 289 290 291 292 293 293 293 294 294 294 294 295 295 295 294 293 293
254 257 258 260 261 262 263 265 266 267 268 270 271 273 274 276 277 278 279 280 281 283 284 285 287 289 289 291 291 292 292 293 294 294 294 294 294 294 295 295 295 295 294 293
256 257 259 261 263 264 265 266 267 268 269 271 273 274 275 276 277 278 279 281 282 283 285 286 287 289 290 291 292 292 293 293 294 295 295 295 294 294 294 294 295 295 294 293
259 259 261 263 264 266 267 268 269 270 271 272 273 275 276 277 278 279 280 281 283 284 286 287 288 290 291 292 292 293 293 294 295 295 295 295 295 294 294 295 295 294 294 293
260 262 263 264 265 267 268 270 271 272 272 273 275 276 277 278 279 280 281 283 284 285 286 288 289 290 291 291 292 293 294 294 295 295 295 295 294 295 295 294 294 294 293 293
262 263 264 265 266 267 269 270 271 272 273 274 275 276 277 279 280 281 283 284 285 286 287 288 289 290 291 291 292 293 294 294 294 295 295 295 295 295 294 294 293 292 292 292
263 264 265 266 267 269 270 271 272 273 274 275 276 277 278 280 281 282 284 285 286 286 287 288 289 290 291 291 292 293 294 294 294 295 295 296 296 296 295 293 292 292 292 291
265 266 267 268 269 270 271 272 273 274 276 277 278 279 280 281 282 283 284 285 286 286 287 288 289 290 291 291 293 293 294 294 294 295 296 297 297 296 295 293 292 292 291 290
266 267 268 269 270 271 272 273 275 276 277 278 279 280 281 282 283 284 284 285 286 287 287 288 289 290 291 292 293 293 293 294 294 295 297 297 297 296 295 293 292 290 289 289
267 268 268 269 270 271 273 274 276 277 278 279 280 281 281 282 283 284 284 285 286 287 288 289 289 290 291 292 293 293 294 294 295 296 296 297 297 296 295 293 291 289 288 288
268 269 269 270 271 273 275 276 277 278 279 280 281 282 282 283 284 285 285 286 287 288 288 289 289 290 291 292 293 293 294 295 296 296 296 296 295 295 294 292 290 289 287 287
269 269 270 272 274 275 277 277 278 279 280 281 282 282 283 284 284 285 286 286 287 287 288 289 290 291 291 292 293 294 294 295 296 296 295 295 294 294 293 292 290 288 286 285
269 270 271 273 274 276 277 277 278 279 280 281 282 283 284 284 285 286 286 287 287 288 289 289 290 291 291 292 293 294 295 296 296 296 295 294 294 293 292 290 289 287 284 284
Height
5806 5808 5810 5812 5813 5815 5816 5817 5818 5819 5820 5821 5823 5824 5825 5826 5827 5828 5829 5829 5830 5830 5831 5831 5831 5831 5831 5831 5830 5830 5829 5829 5828 5827 5826 5825 5823 5822 5821 5819 5818 5816 5814 5813
5806 5807 5809 5810 5812 5813 5815 5816 5816 5817 5819 5819 5820 5822 5823 5824 5825 5826 5827 5827 5828 5828 5828 5828 5828 5828 5828 5827 5827 5827 5826 5825 5824 5823 5822 5821 5819 5818 5817 5815 5814 5812 5810 5809
5805 5806 5807 5809 5810 5811 5813 5814 5815 5816 5818 5817 5818 5820 5821 5822 5823 5824 5824 5825 5825 5825 5826 5825 5825 5825 5825 5824 5823 5823 5822 5821 5820 5819 5818 5816 5815 5814 5812 5811 5809 5807 5806 5804
5803 5805 5806 5809 5808 5809 5810 5811 5812 5813 5814 5815 5816 5817 5818 5819 5820 5821 5821 5822 5822 5822 5822 5822 5822 5821 5821 5820 5819 5818 5817 5816 5815 5814 5813 5811 5810 5808 5807 5805 5803 5802 5800 5798
5799 5801 5802 5804 5805 5806 5807 5808 5809 5810 5811 5812 5813 5813 5814 5816 5816 5817 5817 5818 5818 5818 5818 5817 5817 5816 5816 5815 5814 5813 5812 5811 5810 5808 5807 5805 5804 5802 5800 5799 5797 5795 5793 5791
5796 5797 5799 5801 5802 5802 5804 5804 5805 5806 5807 5808 5809 5810 5811 5811 5812 5813 5813 5813 5813 5813 5813 5812 5812 5811 5810 5810 5809 5807 5806 5805 5804 5802 5801 5799 5797 5795 5793 5792 5790 5788 5786 5784
5791 5793 5793 5795 5797 5799 5801 5801 5801 5802 5803 5804 5804 5806 5807 5806 5807 5807 5808 5808 5808 5808 5807 5806 5806 5805 5804 5803 5802 5801 5799 5798 5796 5795 5793 5791 5790 5788 5786 5784 5782 5780 5777 5775
5786 5787 5790 5791 5792 5793 5795 5795 5796 5797 5798 5799 5799 5800 5800 5801 5801 5801 5802 5802 5801 5801 5801 5800 5799 5798 5797 5796 5794 5793 5791 5789 5788 5786 5784 5782 5781 5778 5776 5774 5772 5769 5767 5764
5781 5783 5784 5785 5786 5787 5788 5789 5790 5792 5792 5793 5793 5794 5794 5795 5795 5795 5795 5795 5794 5794 5793 5792 5791 5790 5789 5787 5786 5784 5782 5780 5778 5776 5774 5772 5770 5768 5765 5763 5760 5757 5754 5752
5774 5775 5777 5779 5780 5781 5782 5783 5784 5785 5786 5786 5787 5787 5787 5787 5787 5787 5787 5787 5786 5785 5785 5784 5782 5781 5779 5778 5776 5774 5772 5770 5768 5766 5764 5761 5759 5756 5753 5750 5747 5744 5741 5737
5767 5769 5770 5771 5773 5774 5776 5777 5777 5778 5779 5779 5779 5780 5780 5779 5779 5779 5778 5778 5777 5776 5775 5774 5772 5771 5769 5767 5765 5763 5761 5758 5756 5754 5751 5749 5746 5743 5740 5737 5732 5729 5726 5722
5759 5761 5763 5765 5766 5767 5768 5769 5770 5770 5771 5771 5771 5771 5771 5770 5770 5769 5769 5768 5767 5766 5765 5763 5761 5760 5758 5756 5753 5751 5748 5746 5743 5740 5738 5735 5732 5730 5726 5722 5718 5714 5710 5706
5751 5752 5755 5756 5758 5758 5759 5760 5761 5761 5762 5762 5762 5762 5761 5761 5760 5759 5758 5757 5756 5755 5753 5752 5750 5748 5746 5743 5741 5738 5735 5732 5729 5726 5723 5720 5717 5714 5711 5708 5703 5699 5694 5690
5742 5743 5745 5747 5748 5749 5750 5751 5751 5751 5752 5752 5751 5751 5751 5750 5749 5748 5747 5746 5745 5743 5741 5739 5737 5735 5733 5730 5727 5724 5721 5718 5715 5711 5708 5704 5701 5698 5694 5691 5688 5683 5679 5674
5732 5733 5735 5737 5738 5739 5740 5740 5741 5741 5741 5741 5741 5740 5739 5739 5738 5737 5735 5734 5732 5731 5729 5727 5724 5722 5719 5716 5713 5710 5707 5703 5699 5696 5692 5688 5684 5680 5677 5672 5669 5665 5661 5657
5721 5723 5724 5726 5727 5728 5729 5729 5729 5730 5729 5729 5729 5728 5727 5726 5725 5724 5723 5721 5720 5718 5716 5713 5711 5708 5705 5701 5698 5695 5691 5687 5683 5679 5675 5671 5667 5663 5659 5654 5650 5646 5642 5638
5710 5712 5713 5714 5715 5716 5716 5717 5717 5717 5717 5717 5716 5716 5715 5714 5713 5711 5710 5708 5706 5704 5701 5699 5696 5693 5689 5686 5682 5679 5675 5671 5667 5662 5658 5653 5649 5645 5640 5636 5632 5628 5624 5619
5699 5700 5701 5702 5703 5703 5704 5704 5704 5704 5704 5703 5703 5702 5702 5700 5699 5698 5696 5694 5692 5690 5687 5683 5680 5677 5674 5670 5666 5662 5658 5654 5649 5645 5640 5636 5631 5627 5623 5618 5614 5609 5605 5602
5686 5688 5688 5689 5690 5690 5691 5691 5691 5691 5691 5690 5689 5689 5688 5686 5685 5683 5681 5679 5677 5675 5672 5668 5665 5661 5658 5654 5650 5645 5641 5637 5632 5627 5623 5618 5614 5610 5605 5600 5596 5592 5587 5584
5674 5675 5676 5676 5677 5677 5677 5677 5677 5677 5677 5676 5676 5675 5674 5672 5670 5668 5666 5664 5661 5658 5655 5652 5648 5645 5641 5637 5632 5628 5624 5619 5615 5610 5606 5601 5597 5592 5587 5583 5578 5574 5570 5566
5661 5662 5663 5663 5664 5664 5664 5663 5663 5663 5663 5662 5661 5660 5658 5657 5655 5652 5650 5648 5645 5641 5638 5635 5632 5628 5624 5620 5615 5611 5607 5602 5598 5593 5588 5584 5579 5574 5569 5565 5561 5556 5552 5549
5648 5649 5649 5649 5650 5650 5649 5649 5649 5648 5648 5646 5645 5644 5642 5640 5638 5636 5633 5631 5628 5625 5622 5618 5615 5611 5607 5602 5598 5594 5589 5585 5580 5576 5571 5566 5561 5556 5551 5547 5543 5539 5536 5532
5634 5635 5635 5635 5635 5635 5635 5634 5634 5633 5632 5631 5629 5628 5626 5624 5622 5619 5617 5614 5611 5608 5604 5601 5597 5594 5589 5585 5581 5577 5572 5568 5564 5559 5554 5549 5544 5539 5534 5530 5527 5523 5520 5517
5620 5620 5621 5621 5621 5620 5620 5619 5618 5617 5616 5615 5613 5611 5609 5607 5605 5602 5600 5597 5594 5591 5587 5584 5580 5576 5572 5568 5564 5560 5555 5551 5547 5542 5537 5532 5527 5522 5518 5514 5510 5507 5505 5502
5605 5606 5606 5606 5606 5605 5604 5604 5603 5601 5600 5598 5597 5595 5592 5590 5588 5586 5583 5580 5577 5574 5570 5567 5563 5559 5555 5551 5547 5543 5539 5534 5529 5525 5520 5515 5511 5507 5503 5499 5496 5493 5490 5488
5591 5591 5591 5591 5590 5590 5589 5588 5587 5585 5583 5582 5580 5578 5575 5573 5570 5568 5565 5562 5560 5557 5553 5550 5546 5543 5539 5534 5530 5526 5522 5517 5513 5509 5504 5500 5496 5492 5488 5485 5482 5480 5478 5476
5576 5576 5576 5576 5575 5574 5573 5571 5570 5569 5567 5565 5563 5561 5558 5556 5553 5551 5548 5545 5542 5539 5536 5533 5530 5526 5522 5518 5514 5510 5506 5502 5497 5493 5489 5486 5482 5479 5476 5473 5470 5468 5466 5465